�N����,����,�~����,�C��,���x,�C��,����,���ϕ���,�ő�u�ԕ���,�ő厞����,���˗�,�I�_���x,�n�����x,�ő啗���N��,DTYPE
"23/10/29","00:10",0.0,9.5,92.4,1010.9,288.1,1.5,2.2,314.1,0.00,8.4,15.7,"00:06:08",1
"23/10/29","00:20",0.0,9.7,92.8,1010.9,306.8,1.5,2.2,347.2,0.00,8.6,15.3,"00:15:12",1
"23/10/29","00:30",0.0,9.7,93.2,1010.9,326.2,1.8,2.2,309.0,0.00,8.7,15.5,"00:21:12",1
"23/10/29","00:40",0.0,9.6,93.2,1010.9,299.9,1.2,2.4,319.4,0.00,8.6,15.3,"00:30:56",1
"23/10/29","00:50",0.0,9.3,93.5,1011.2,297.9,1.6,2.7,323.2,0.00,8.3,15.2,"00:43:28",1
"23/10/29","01:00",0.0,9.2,93.8,1010.9,299.4,1.8,2.5,319.6,0.00,8.3,15.2,"00:55:28",1
"23/10/29","01:10",0.0,9.1,94.2,1011.2,300.9,1.5,2.1,301.9,0.00,8.3,15.3,"01:07:28",1
"23/10/29","01:20",0.0,9.4,94.2,1011.2,310.8,1.6,2.8,296.1,0.00,8.6,15.3,"01:10:48",1
"23/10/29","01:30",0.0,9.5,94.5,1011.4,327.0,1.7,2.5,314.1,0.00,8.7,15.0,"01:22:32",1
"23/10/29","01:40",0.0,9.4,94.5,1011.2,307.3,1.7,2.4,320.0,0.00,8.6,15.2,"01:34:08",1
"23/10/29","01:50",0.0,9.4,94.9,1011.2,308.7,1.7,2.5,348.8,0.00,8.7,15.2,"01:40:02",1
"23/10/29","02:00",0.0,10.2,95.0,1011.4,322.8,2.1,3.4,339.6,0.00,9.5,15.1,"01:59:12",1
"23/10/29","02:10",0.0,10.6,94.7,1011.4,319.3,2.2,4.1,318.3,0.00,9.8,15.0,"02:05:28",1
"23/10/29","02:20",0.0,10.8,94.5,1010.9,290.3,2.0,3.2,328.3,0.00,10.0,14.9,"02:12:00",1
"23/10/29","02:30",0.0,10.6,94.4,1011.2,292.1,1.7,2.5,317.3,0.00,9.8,14.9,"02:21:28",1
"23/10/29","02:40",0.0,10.3,94.6,1011.2,301.1,1.5,1.9,319.0,0.00,9.5,15.1,"02:35:36",1
"23/10/29","02:50",0.0,10.8,94.4,1010.9,303.0,2.0,3.4,308.7,0.00,10.0,14.8,"02:46:58",1
"23/10/29","03:00",0.0,11.1,93.6,1010.9,308.3,2.5,4.0,321.4,0.00,10.1,15.2,"02:57:42",1
"23/10/29","03:10",0.0,11.3,92.8,1010.9,311.1,2.2,4.7,310.4,0.00,10.2,14.9,"03:00:52",1
"23/10/29","03:20",0.0,11.0,92.2,1010.9,325.2,2.2,3.1,312.6,0.00,9.8,14.9,"03:14:38",1
"23/10/29","03:30",0.0,10.8,91.8,1011.2,327.7,2.2,3.3,341.3,0.00,9.6,14.9,"03:24:48",1
"23/10/29","03:40",0.0,10.4,91.4,1010.9,319.9,2.1,2.7,309.5,0.00,9.1,14.9,"03:35:44",1
"23/10/29","03:50",0.0,10.1,91.4,1011.2,316.2,2.0,2.8,335.7,0.00,8.8,14.7,"03:49:44",1
"23/10/29","04:00",0.0,9.8,91.4,1010.9,319.2,2.0,2.7,323.1,0.00,8.5,14.8,"03:57:12",1
"23/10/29","04:10",0.0,9.9,91.7,1010.7,315.8,2.0,2.9,304.4,0.00,8.7,14.8,"04:04:08",1
"23/10/29","04:20",0.0,10.0,91.5,1010.9,320.4,1.5,2.5,324.7,0.00,8.7,14.7,"04:13:44",1
"23/10/29","04:30",0.0,9.7,91.9,1011.2,309.8,1.8,2.7,331.8,0.00,8.5,14.6,"04:26:32",1
"23/10/29","04:40",0.0,10.1,91.8,1011.2,319.2,2.2,2.8,333.0,0.00,8.9,14.5,"04:31:36",1
"23/10/29","04:50",0.0,10.0,91.8,1011.4,321.8,2.0,2.5,313.5,0.00,8.8,14.5,"04:49:36",1
"23/10/29","05:00",0.0,10.1,92.0,1011.4,320.6,2.1,2.7,328.5,0.00,8.9,14.7,"04:56:32",1
"23/10/29","05:10",0.0,10.4,92.0,1011.4,323.3,2.3,3.4,335.9,0.00,9.2,14.7,"05:00:48",1
"23/10/29","05:20",0.0,10.8,91.8,1011.2,310.9,2.5,3.9,312.0,0.00,9.6,14.8,"05:18:58",1
"23/10/29","05:30",0.0,10.9,91.2,1011.4,314.7,2.3,3.6,311.4,0.00,9.6,14.4,"05:21:12",1
"23/10/29","05:40",0.0,10.7,90.8,1011.4,315.5,2.0,2.7,328.4,0.00,9.3,14.4,"05:30:56",1
"23/10/29","05:50",0.0,10.5,90.8,1011.9,305.0,2.1,3.1,322.6,0.00,9.1,14.5,"05:45:28",1
"23/10/29","06:00",0.0,10.7,90.6,1011.6,315.9,2.5,3.5,308.3,0.00,9.3,14.4,"05:53:36",1
"23/10/29","06:10",0.0,11.0,90.2,1011.4,314.0,3.0,4.1,290.8,0.00,9.5,14.5,"06:04:16",1
"23/10/29","06:20",0.0,11.1,89.6,1011.4,316.4,3.4,5.1,328.2,0.00,9.5,14.3,"06:15:20",1
"23/10/29","06:30",0.0,11.1,89.1,1011.4,323.5,3.5,6.5,333.0,0.00,9.4,14.6,"06:28:28",1
"23/10/29","06:40",0.0,10.9,88.5,1011.2,317.3,2.6,4.8,336.0,0.00,9.1,14.5,"06:30:50",1
"23/10/29","06:50",0.0,10.9,88.4,1011.4,295.1,2.1,3.5,318.7,0.00,9.1,14.7,"06:49:52",1
"23/10/29","07:00",0.0,11.5,87.6,1011.4,265.8,1.7,2.9,304.4,0.00,9.6,14.6,"06:50:08",1
"23/10/29","07:10",0.0,11.7,86.3,1011.9,270.4,1.6,3.4,248.1,0.00,9.5,14.5,"07:01:04",1
"23/10/29","07:20",0.0,11.3,86.0,1011.9,317.0,1.8,3.3,327.7,0.00,9.1,14.3,"07:10:48",1
"23/10/29","07:30",0.0,11.8,86.5,1011.9,9.0,1.0,2.9,332.2,0.04,9.7,14.6,"07:20:24",1
"23/10/29","07:40",0.0,12.5,86.1,1012.1,280.2,0.7,1.8,233.7,0.06,10.3,14.5,"07:37:38",1
"23/10/29","07:50",0.0,13.2,84.2,1012.1,274.1,0.7,2.2,241.2,0.09,10.6,14.6,"07:40:02",1
"23/10/29","08:00",0.0,14.1,80.2,1012.1,313.3,1.8,3.7,339.0,0.10,10.8,14.3,"07:58:32",1
"23/10/29","08:10",0.0,14.7,75.5,1012.3,298.7,1.5,3.4,256.1,0.11,10.5,14.2,"08:01:52",1
"23/10/29","08:20",0.0,14.4,73.8,1012.8,253.3,1.5,3.4,234.6,0.05,9.8,14.3,"08:12:24",1
"23/10/29","08:30",0.0,14.8,73.9,1012.6,260.4,1.1,2.4,339.5,0.13,10.2,14.4,"08:28:40",1
"23/10/29","08:40",0.0,14.9,74.9,1012.8,255.8,1.6,4.3,238.3,0.13,10.5,14.4,"08:31:04",1
"23/10/29","08:50",0.0,15.4,73.7,1012.6,262.7,1.6,4.0,208.4,0.17,10.8,14.5,"08:46:08",1
"23/10/29","09:00",0.0,15.1,73.5,1012.3,281.3,1.5,3.1,349.4,0.06,10.4,14.6,"08:51:20",1
"23/10/29","09:10",0.0,15.5,73.6,1012.8,279.3,1.3,3.4,334.4,0.22,10.8,14.6,"09:08:28",1
"23/10/29","09:20",0.0,16.5,72.1,1012.3,285.6,1.0,3.4,237.8,0.26,11.5,14.5,"09:15:04",1
"23/10/29","09:30",0.0,17.0,69.2,1012.6,314.9,1.3,2.5,340.5,0.27,11.4,14.6,"09:25:20",1
"23/10/29","09:40",0.0,17.0,68.4,1012.6,309.0,1.8,4.3,326.3,0.30,11.2,14.6,"09:31:36",1
"23/10/29","09:50",0.0,17.0,67.1,1012.6,279.3,1.6,4.4,230.8,0.29,10.9,14.9,"09:42:32",1
"23/10/29","10:00",0.0,17.1,66.9,1012.3,354.2,2.0,5.8,325.1,0.21,10.9,14.9,"09:57:28",1
"23/10/29","10:10",0.0,16.5,67.9,1012.6,6.4,2.2,5.6,347.6,0.09,10.6,15.2,"10:07:04",1
"23/10/29","10:20",0.0,16.3,69.3,1012.3,342.9,2.0,3.9,23.7,0.09,10.7,14.9,"10:10:08",1
"23/10/29","10:30",0.0,17.3,68.8,1012.6,349.9,1.5,3.4,5.7,0.27,11.6,14.8,"10:25:04",1
"23/10/29","10:40",0.0,17.1,67.4,1012.3,335.4,2.2,7.0,321.1,0.19,11.1,15.1,"10:36:40",1
"23/10/29","10:50",0.0,18.2,64.9,1012.6,324.7,1.8,4.9,346.3,0.43,11.5,15.2,"10:48:56",1
"23/10/29","11:00",0.0,18.0,63.4,1012.6,336.0,3.1,5.8,325.3,0.38,11.0,15.3,"10:54:48",1
"23/10/29","11:10",0.0,18.4,63.1,1012.3,340.6,3.1,7.8,359.1,0.42,11.3,15.2,"11:02:40",1
"23/10/29","11:20",0.0,18.2,62.1,1012.6,330.9,3.5,6.6,335.7,0.42,10.9,15.2,"11:10:48",1
"23/10/29","11:30",0.0,18.0,63.5,1012.1,331.4,3.7,7.7,345.3,0.42,11.0,15.5,"11:29:52",1
"23/10/29","11:40",0.0,18.6,62.9,1012.3,341.8,3.0,6.6,336.0,0.42,11.4,15.4,"11:35:12",1
"23/10/29","11:50",0.0,18.7,60.6,1011.9,344.7,2.5,5.4,37.8,0.40,11.0,15.6,"11:48:40",1
"23/10/29","12:00",0.0,19.1,62.0,1011.6,334.9,3.0,6.2,329.9,0.40,11.7,15.4,"11:51:36",1
"23/10/29","12:10",0.0,18.6,61.6,1011.6,334.9,3.2,6.5,330.7,0.35,11.1,15.7,"12:09:52",1
"23/10/29","12:20",0.0,19.0,61.7,1011.6,313.4,3.0,5.7,292.9,0.42,11.5,15.8,"12:14:00",1
"23/10/29","12:30",0.0,18.4,60.4,1011.6,325.9,3.1,5.8,306.5,0.30,10.6,15.9,"12:20:32",1
"23/10/29","12:40",0.0,18.3,62.6,1011.6,349.8,2.8,7.3,345.2,0.28,11.1,15.8,"12:31:12",1
"23/10/29","12:50",0.0,18.5,60.7,1011.9,335.6,3.0,7.0,325.8,0.31,10.8,16.0,"12:41:36",1
"23/10/29","13:00",0.0,18.3,61.6,1011.4,350.8,2.8,5.9,337.3,0.24,10.8,15.9,"12:58:24",1
"23/10/29","13:10",0.0,17.8,63.5,1011.9,347.1,2.3,4.9,345.9,0.08,10.8,15.9,"13:09:04",1
"23/10/29","13:20",0.0,16.9,65.7,1012.1,348.6,3.4,6.3,67.1,0.06,10.5,16.2,"13:13:28",1
"23/10/29","13:30",0.0,16.8,69.3,1011.4,332.3,2.1,4.3,320.2,0.11,11.2,16.1,"13:24:00",1
"23/10/29","13:40",0.0,17.8,67.9,1011.6,301.8,2.1,3.9,229.1,0.31,11.8,16.1,"13:37:12",1
"23/10/29","13:50",0.0,18.2,65.2,1011.6,318.6,2.8,8.5,339.7,0.31,11.6,16.2,"13:48:08",1
"23/10/29","14:00",0.0,18.6,63.9,1011.6,338.9,2.7,6.5,346.7,0.29,11.7,16.5,"13:52:40",1
"23/10/29","14:10",0.0,18.5,63.4,1011.6,340.1,3.0,5.9,21.6,0.24,11.5,16.2,"14:07:28",1
"23/10/29","14:20",0.0,17.9,64.9,1011.6,332.3,2.7,4.9,339.3,0.12,11.3,16.5,"14:12:32",1
"23/10/29","14:30",0.0,17.8,66.5,1011.6,356.3,2.5,5.9,329.1,0.12,11.5,16.2,"14:22:40",1
"23/10/29","14:40",0.0,17.6,66.3,1011.9,353.6,2.2,5.5,345.3,0.08,11.3,16.4,"14:32:48",1
"23/10/29","14:50",0.0,17.3,67.5,1011.9,348.0,1.7,3.6,336.6,0.05,11.3,16.2,"14:43:44",1
"23/10/29","15:00",0.0,17.0,67.4,1011.9,341.2,2.5,5.6,321.2,0.04,11.0,16.5,"14:54:48",1
"23/10/29","15:10",0.0,16.5,68.5,1012.1,322.1,2.8,5.8,312.9,0.02,10.7,16.3,"15:09:12",1
"23/10/29","15:20",0.0,17.3,68.4,1012.1,322.5,3.0,6.3,350.4,0.13,11.5,16.3,"15:16:56",1
"23/10/29","15:30",0.0,17.7,67.3,1012.1,329.0,3.6,7.2,333.4,0.16,11.6,16.4,"15:25:36",1
"23/10/29","15:40",0.0,17.7,67.0,1012.3,336.7,3.0,6.0,348.8,0.10,11.5,16.3,"15:37:12",1
"23/10/29","15:50",0.0,17.4,67.7,1012.6,339.7,2.6,5.4,359.5,0.06,11.4,16.5,"15:40:32",1
"23/10/29","16:00",0.0,17.2,68.4,1012.3,335.2,2.3,7.5,330.2,0.04,11.4,16.7,"15:57:28",1
"23/10/29","16:10",0.0,17.0,68.8,1012.6,332.7,2.8,5.0,343.2,0.03,11.3,16.5,"16:02:40",1
"23/10/29","16:20",0.0,16.9,69.5,1012.6,345.1,2.2,4.7,350.9,0.02,11.3,16.5,"16:14:56",1
"23/10/29","16:30",0.0,16.4,70.8,1012.3,351.9,2.2,4.5,337.3,0.00,11.1,16.5,"16:21:52",1
"23/10/29","16:40",0.0,15.9,72.2,1012.3,344.6,2.1,5.7,340.3,0.00,10.9,16.3,"16:31:12",1
"23/10/29","16:50",0.0,15.7,73.3,1012.8,342.1,1.6,2.7,332.6,0.00,11.0,16.4,"16:42:14",1
"23/10/29","17:00",0.0,15.6,74.3,1013.0,344.3,1.3,2.5,322.6,0.00,11.1,16.3,"16:52:52",1
"23/10/29","17:10",0.0,15.7,74.7,1013.0,341.2,1.5,3.2,340.2,0.00,11.3,16.2,"17:08:14",1
"23/10/29","17:20",0.0,15.4,74.4,1013.3,337.2,1.6,2.6,350.3,0.00,10.9,16.4,"17:12:42",1
"23/10/29","17:30",0.0,15.2,74.6,1013.3,329.7,1.3,2.2,333.8,0.00,10.8,16.4,"17:20:46",1
"23/10/29","17:40",0.0,14.9,74.9,1013.5,305.2,1.5,2.8,317.6,0.00,10.5,16.1,"17:30:58",1
"23/10/29","17:50",0.0,14.4,76.0,1013.5,319.9,1.2,1.7,340.7,0.00,10.3,16.2,"17:40:56",1
"23/10/29","18:00",0.0,13.8,77.4,1013.8,299.9,1.1,1.7,301.4,0.00,10.0,16.1,"17:59:00",1
"23/10/29","18:10",0.0,13.5,79.2,1014.0,309.0,1.2,1.8,336.4,0.00,10.0,16.3,"18:00:42",1
"23/10/29","18:20",0.0,13.5,81.0,1014.0,310.0,1.1,1.6,336.5,0.00,10.3,16.2,"18:11:12",1
"23/10/29","18:30",0.0,13.3,82.1,1014.0,296.6,1.2,2.4,315.5,0.00,10.4,16.0,"18:28:22",1
"23/10/29","18:40",0.0,13.6,82.2,1014.0,314.0,1.6,2.6,328.7,0.00,10.7,16.1,"18:33:32",1
"23/10/29","18:50",0.0,14.1,81.0,1014.5,312.9,1.7,2.2,323.7,0.00,10.9,16.1,"18:46:12",1
"23/10/29","19:00",0.0,14.1,79.3,1014.0,316.0,2.0,3.4,326.6,0.00,10.6,15.9,"18:58:32",1
"23/10/29","19:10",0.0,13.9,78.3,1014.5,322.7,2.1,3.2,307.6,0.00,10.2,16.0,"19:01:20",1
"23/10/29","19:20",0.0,13.6,78.6,1014.2,328.2,1.7,2.6,335.8,0.00,10.0,16.1,"19:11:04",1
"23/10/29","19:30",0.0,13.2,79.4,1014.2,318.9,1.6,2.4,331.4,0.00,9.8,15.9,"19:21:20",1
"23/10/29","19:40",0.0,12.6,80.4,1014.5,312.5,1.7,2.2,317.0,0.00,9.4,16.0,"19:34:26",1
"23/10/29","19:50",0.0,12.0,81.9,1014.5,316.6,1.7,2.0,320.5,0.00,9.0,15.9,"19:42:40",1
"23/10/29","20:00",0.0,11.9,83.4,1014.5,320.5,2.0,2.6,320.0,0.00,9.2,15.9,"19:53:42",1
"23/10/29","20:10",0.0,11.7,84.7,1014.5,323.9,1.8,2.4,334.0,0.00,9.3,16.0,"20:02:32",1
"23/10/29","20:20",0.0,11.2,85.6,1014.7,312.4,1.2,1.9,339.6,0.00,8.9,15.7,"20:19:46",1
"23/10/29","20:30",0.0,11.2,86.5,1014.7,326.2,1.6,2.7,328.3,0.00,9.1,15.9,"20:29:08",1
"23/10/29","20:40",0.0,11.9,86.7,1014.9,320.5,2.6,3.9,331.5,0.00,9.8,15.8,"20:35:26",1
"23/10/29","20:50",0.0,12.4,86.0,1014.9,323.7,2.1,3.9,326.5,0.00,10.2,15.5,"20:49:40",1
"23/10/29","21:00",0.0,12.6,85.1,1015.2,323.3,2.6,4.3,318.0,0.00,10.2,15.7,"20:52:04",1
"23/10/29","21:10",0.0,12.9,84.1,1015.6,318.2,2.3,4.0,334.5,0.00,10.3,15.6,"21:03:34",1
"23/10/29","21:20",0.0,12.9,83.4,1015.2,299.5,1.6,3.1,325.4,0.00,10.2,15.5,"21:11:54",1
"23/10/29","21:30",0.0,12.9,83.1,1015.6,292.7,1.2,1.7,300.7,0.00,10.1,15.6,"21:20:08",1
"23/10/29","21:40",0.0,12.8,83.1,1015.6,304.9,1.6,2.2,313.9,0.00,10.0,15.5,"21:38:12",1
"23/10/29","21:50",0.0,12.6,83.5,1015.4,322.1,2.0,2.7,309.0,0.00,9.9,15.5,"21:48:22",1
"23/10/29","22:00",0.0,12.3,83.9,1015.2,323.1,2.0,2.8,338.4,0.00,9.7,15.5,"21:58:28",1
"23/10/29","22:10",0.0,12.1,84.8,1015.4,322.5,2.6,3.9,322.1,0.00,9.7,15.5,"22:08:18",1
"23/10/29","22:20",0.0,12.1,85.3,1015.4,323.6,2.5,3.6,339.8,0.00,9.7,15.2,"22:18:14",1
"23/10/29","22:30",0.0,11.9,85.8,1015.2,326.5,2.5,3.5,329.1,0.00,9.6,15.5,"22:23:46",1
"23/10/29","22:40",0.0,11.9,86.3,1015.4,326.9,2.2,3.5,339.5,0.00,9.7,15.5,"22:35:32",1
"23/10/29","22:50",0.0,11.7,86.6,1015.4,296.1,2.0,3.7,340.9,0.00,9.6,15.4,"22:41:40",1
"23/10/29","23:00",0.0,11.6,87.2,1015.2,299.7,2.1,3.1,305.9,0.00,9.6,15.4,"22:55:52",1
"23/10/29","23:10",0.0,11.8,87.7,1015.4,323.0,2.5,3.6,341.0,0.00,9.9,15.4,"23:08:14",1
"23/10/29","23:20",0.0,12.1,87.7,1015.4,327.3,2.0,3.5,336.7,0.00,10.2,15.3,"23:18:08",1
"23/10/29","23:30",0.0,12.2,87.5,1015.2,321.9,2.1,4.0,332.0,0.00,10.2,15.2,"23:21:14",1
"23/10/29","23:40",0.0,12.0,87.3,1015.4,302.6,1.8,2.5,336.5,0.00,10.0,15.4,"23:32:48",1
"23/10/29","23:50",0.0,11.7,87.3,1015.2,299.4,1.8,2.5,319.9,0.00,9.7,15.3,"23:43:02",1
"23/10/29","24:00",0.0,11.5,87.6,1015.4,322.8,2.2,2.9,322.9,0.00,9.6,15.2,"23:53:42",1
